This is the latest recevied weather packets stored in our database for station/object DB0TBG. If no packets are shown the sender has not sent any weather packets the latest 10 day(s).
| Time | Temp. | Humidity | Pressure | Rain* | Wind** | Luminosity | Snow |
|---|---|---|---|---|---|---|---|
| 1777805611 | 27.22° C | 17% | 970 hPa | 0 mm | 0 m/s | - | - |
| 1777805012 | 27.22° C | 19% | 970 hPa | 0 mm | 0 m/s | - | - |
| 1777804410 | 26.67° C | 17% | 971 hPa | 0 mm | 0 m/s | - | - |
| 1777803811 | 26.67° C | 20% | 971 hPa | 0 mm | 0 m/s | - | - |
| 1777803212 | 26.11° C | 21% | 971 hPa | 0 mm | 0 m/s | - | - |
| 1777802607 | 26.11° C | 21% | 971 hPa | 0 mm | 0 m/s | - | - |
| 1777802008 | 26.11° C | 21% | 971 hPa | 0 mm | 0 m/s | - | - |
| 1777801409 | 25.56° C | 21% | 971 hPa | 0 mm | 0 m/s | - | - |
| 1777800799 | 25.56° C | 22% | 971 hPa | 0 mm | 0 m/s | - | - |
| 1777800200 | 24.44° C | 22% | 971 hPa | 0 mm | 0 m/s | - | - |
| 1777799601 | 24.44° C | 23% | 971 hPa | 0 mm | 0 m/s | - | - |
| 1777798975 | 23.89° C | 23% | 971 hPa | 0 mm | 0 m/s | - | - |
| 1777798375 | 23.33° C | 24% | 971 hPa | 0 mm | 0 m/s | - | - |
| 1777797757 | 22.78° C | 26% | 971 hPa | 0 mm | 0 m/s | - | - |
| 1777797130 | 22.22° C | 26% | 971 hPa | 0 mm | 0 m/s | - | - |
| 1777796508 | 21.67° C | 27% | 971 hPa | 0 mm | 0 m/s | - | - |
| 1777795908 | 21.67° C | 26% | 971 hPa | 0 mm | 0 m/s | - | - |
| 1777795304 | 21.11° C | 30% | 972 hPa | 0 mm | 0 m/s | - | - |
| 1777794704 | 20.56° C | 30% | 972 hPa | 0 mm | 0 m/s | - | - |
| 1777794105 | 20° C | 30% | 972 hPa | 0 mm | 0 m/s | - | - |
| 1777792900 | 18.89° C | 30% | 972 hPa | 0 mm | 0 m/s | - | - |
| 1777791667 | 18.33° C | 30% | 971 hPa | 0 mm | 0 m/s | - | - |
| 1777791066 | 18.33° C | 30% | 971 hPa | 0 mm | 0 m/s | - | - |
| 1777790467 | 17.78° C | 31% | 971 hPa | 0 mm | 0 m/s | - | - |
| 1777789858 | 17.22° C | 31% | 971 hPa | 0 mm | 0 m/s | - | - |
* Rain latest hour (hover to see other rain measurements)
** Current wind speed in m/s (hover to see current wind gust speed)